| time (UTC) | temp F | wind direction | speed knots | gust knots | rain 1hr in | rain 24hr in | rain mn in | humidity % | barometer mb |
| 20260506025519 | 50 | 322 | 0.0 | 0.9 | 0.00 | 0.10 | 0.01 | 94 | 1010.4 |
| 20260506025020 | 50 | 324 | 0.0 | 0.9 | 0.00 | 0.10 | 0.01 | 94 | 1010.4 |
| 20260506024519 | 50 | 324 | 0.0 | 2.6 | 0.00 | 0.10 | 0.01 | 94 | 1010.4 |
| 20260506024018 | 50 | 324 | 0.0 | 2.6 | 0.00 | 0.10 | 0.01 | 94 | 1010.5 |
| 20260506023517 | 50 | 248 | 0.0 | 1.7 | 0.00 | 0.10 | 0.01 | 94 | 1010.6 |
| 20260506023018 | 50 | 246 | 0.0 | 1.7 | 0.00 | 0.10 | 0.01 | 94 | 1010.5 |
| 20260506022517 | 50 | 305 | 0.0 | 1.7 | 0.00 | 0.10 | 0.01 | 94 | 1010.6 |
| 20260506022017 | 50 | 305 | 0.0 | 3.5 | 0.00 | 0.10 | 0.01 | 94 | 1010.6 |
| 20260506021517 | 50 | 309 | 0.0 | 3.5 | 0.00 | 0.10 | 0.01 | 94 | 1010.6 |
| 20260506021017 | 50 | 323 | 0.9 | 3.5 | 0.00 | 0.10 | 0.01 | 94 | 1010.5 |
| 20260506020515 | 50 | 235 | 0.0 | 4.3 | 0.00 | 0.10 | 0.01 | 94 | 1010.6 |
| 20260506020020 | 50 | 315 | 1.7 | 4.3 | 0.00 | 0.10 | 0.01 | 94 | 1010.7 |
| 20260506015514 | 50 | 306 | 0.0 | 3.5 | 0.00 | 0.10 | 0.01 | 94 | 1010.8 |
| 20260506015014 | 51 | 266 | 0.0 | 1.7 | 0.00 | 0.10 | 0.01 | 94 | 1010.8 |
| 20260506014518 | 51 | 273 | 0.0 | 1.7 | 0.00 | 0.10 | 0.01 | 94 | 1010.8 |
| 20260506014013 | 51 | 285 | 0.0 | 1.7 | 0.00 | 0.10 | 0.01 | 94 | 1010.9 |
| 20260506013513 | 51 | 290 | 0.0 | 3.5 | 0.00 | 0.10 | 0.01 | 94 | 1010.9 |
| 20260506013023 | 51 | 312 | 0.9 | 3.5 | 0.00 | 0.10 | 0.01 | 94 | 1011.0 |
| 20260506012512 | 51 | 320 | 0.9 | 3.5 | 0.00 | 0.10 | 0.01 | 94 | 1011.1 |
| 20260506012012 | 51 | 315 | 0.9 | 3.5 | 0.00 | 0.10 | 0.01 | 94 | 1011.2 |
| 20260506011511 | 51 | 313 | 0.0 | 3.5 | 0.00 | 0.10 | 0.01 | 94 | 1011.3 |
| 20260506011010 | 51 | 316 | 0.9 | 3.5 | 0.00 | 0.10 | 0.01 | 94 | 1011.3 |
| 20260506010513 | 51 | 315 | 1.7 | 3.5 | 0.00 | 0.10 | 0.01 | 94 | 1011.3 |
| 20260506010010 | 51 | 304 | 0.0 | 2.6 | 0.00 | 0.10 | 0.01 | 94 | 1011.3 |
| 20260506005510 | 51 | 317 | 0.0 | 3.5 | 0.00 | 0.10 | 0.01 | 93 | 1011.4 |
| 20260506005015 | 51 | 262 | 0.9 | 2.6 | 0.00 | 0.10 | 0.01 | 93 | 1011.5 |
| 20260506004517 | 51 | 299 | 0.0 | 3.5 | 0.00 | 0.10 | 0.01 | 93 | 1011.4 |
| 20260506004008 | 51 | 311 | 0.9 | 3.5 | 0.00 | 0.10 | 0.01 | 93 | 1011.5 |
| 20260506003510 | 51 | 309 | 1.7 | 3.5 | 0.00 | 0.10 | 0.01 | 93 | 1011.4 |
| 20260506003008 | 51 | 247 | 0.0 | 1.7 | 0.00 | 0.10 | 0.01 | 93 | 1011.4 |
| 20260506002510 | 51 | 245 | 0.0 | 3.5 | 0.00 | 0.10 | 0.01 | 93 | 1011.4 |
| 20260506002007 | 51 | 302 | 0.0 | 3.5 | 0.00 | 0.10 | 0.01 | 93 | 1011.5 |
| 20260506001508 | 51 | 240 | 0.0 | 4.3 | 0.00 | 0.10 | 0.01 | 93 | 1011.5 |
| 20260506001006 | 51 | 320 | 0.9 | 4.3 | 0.00 | 0.10 | 0.01 | 93 | 1011.5 |
| 20260506000507 | 51 | 234 | 0.9 | 3.5 | 0.00 | 0.10 | 0.01 | 93 | 1011.7 |
| 20260506000014 | 51 | 219 | 0.0 | 3.5 | 0.00 | 0.10 | 0.01 | 93 | 1011.7 |
| 20260505235508 | 51 | 317 | 0.9 | 3.5 | 0.00 | 0.10 | 0.01 | 93 | 1011.7 |
| 20260505235003 | 51 | 325 | 0.9 | 2.6 | 0.00 | 0.10 | 0.01 | 93 | 1011.8 |
| 20260505234506 | 51 | 333 | 0.9 | 3.5 | 0.00 | 0.10 | 0.01 | 93 | 1011.8 |
| 20260505234002 | 51 | 322 | 0.9 | 4.3 | 0.00 | 0.10 | 0.01 | 93 | 1011.9 |
| 20260505233503 | 51 | 316 | 0.9 | 3.5 | 0.00 | 0.10 | 0.01 | 93 | 1012.0 |
| 20260505233001 | 51 | 314 | 1.7 | 4.3 | 0.00 | 0.10 | 0.01 | 93 | 1012.0 |
| 20260505232501 | 51 | 321 | 1.7 | 4.3 | 0.00 | 0.10 | 0.01 | 93 | 1012.0 |
| 20260505232002 | 51 | 321 | 0.9 | 3.5 | 0.00 | 0.10 | 0.01 | 93 | 1012.0 |
| 20260505231502 | 51 | 285 | 0.0 | 3.5 | 0.00 | 0.10 | 0.01 | 93 | 1012.0 |
| 20260505231001 | 51 | 289 | 0.9 | 4.3 | 0.00 | 0.10 | 0.01 | 93 | 1012.0 |
| 20260505230601 | 51 | 320 | 1.7 | 4.3 | 0.00 | 0.10 | 0.01 | 93 | 1012.1 |
| 20260505230118 | 51 | 319 | 0.9 | 3.5 | 0.01 | 0.10 | 0.01 | 93 | 1012.1 |
| 20260505225559 | 51 | 319 | 0.9 | 3.5 | 0.01 | 0.10 | 0.01 | 93 | 1012.2 |
| 20260505225100 | 51 | 317 | 0.9 | 2.6 | 0.01 | 0.10 | 0.01 | 93 | 1012.2 |
| 20260505224559 | 51 | 325 | 0.0 | 3.5 | 0.01 | 0.10 | 0.01 | 93 | 1012.2 |
| 20260505224059 | 51 | 312 | 0.9 | 3.5 | 0.01 | 0.10 | 0.01 | 92 | 1012.2 |
| 20260505223558 | 51 | 238 | 0.0 | 1.7 | 0.01 | 0.10 | 0.01 | 93 | 1012.3 |
| 20260505223101 | 51 | 238 | 0.0 | 2.6 | 0.01 | 0.10 | 0.01 | 92 | 1012.1 |
| 20260505222558 | 51 | 319 | 0.9 | 4.3 | 0.01 | 0.10 | 0.01 | 92 | 1012.2 |
| 20260505222057 | 51 | 321 | 2.6 | 4.3 | 0.01 | 0.10 | 0.01 | 92 | 1012.2 |
| 20260505221600 | 51 | 312 | 0.9 | 4.3 | 0.01 | 0.10 | 0.01 | 92 | 1012.1 |
| 20260505221056 | 51 | 324 | 0.9 | 4.3 | 0.01 | 0.10 | 0.01 | 92 | 1012.2 |
| 20260505220557 | 51 | 325 | 0.0 | 3.5 | 0.01 | 0.10 | 0.01 | 92 | 1012.2 |
| 20260505220056 | 51 | 275 | 0.0 | 1.7 | 0.00 | 0.09 | 0.09 | 92 | 1012.2 |
| 20260505215554 | 51 | 284 | 0.0 | 1.7 | 0.00 | 0.09 | 0.09 | 92 | 1012.1 |
| 20260505215054 | 52 | 287 | 0.0 | 2.6 | 0.00 | 0.09 | 0.09 | 92 | 1012.2 |
| 20260505214605 | 52 | 302 | 0.0 | 3.5 | 0.00 | 0.09 | 0.09 | 92 | 1012.3 |
| 20260505214054 | 52 | 313 | 0.9 | 3.5 | 0.00 | 0.09 | 0.09 | 92 | 1012.3 |
| 20260505213553 | 52 | 301 | 0.9 | 3.5 | 0.00 | 0.09 | 0.09 | 91 | 1012.2 |
| 20260505213058 | 52 | 284 | 0.0 | 1.7 | 0.00 | 0.09 | 0.09 | 91 | 1012.3 |
| 20260505212552 | 52 | 313 | 0.0 | 2.6 | 0.00 | 0.09 | 0.09 | 91 | 1012.4 |
| 20260505212051 | 52 | 313 | 0.9 | 2.6 | 0.00 | 0.09 | 0.09 | 91 | 1012.4 |
| 20260505211557 | 52 | 310 | 0.0 | 0.0 | 0.00 | 0.09 | 0.09 | 91 | 1012.4 |
| 20260505211051 | 53 | 319 | 0.0 | 0.0 | 0.00 | 0.09 | 0.09 | 91 | 1012.5 |
| 20260505210551 | 53 | 319 | 0.0 | 0.0 | 0.00 | 0.09 | 0.09 | 91 | 1012.5 |
| 20260505210053 | 53 | 319 | 0.0 | 1.7 | 0.00 | 0.09 | 0.09 | 91 | 1012.3 |
| 20260505205551 | 53 | 319 | 0.0 | 2.6 | 0.00 | 0.09 | 0.09 | 91 | 1012.4 |
| 20260505205049 | 53 | 319 | 1.7 | 2.6 | 0.00 | 0.09 | 0.09 | 91 | 1012.4 |
| 20260505204550 | 53 | 316 | 0.0 | 2.6 | 0.00 | 0.09 | 0.09 | 90 | 1012.4 |
| 20260505204049 | 53 | 316 | 0.0 | 0.9 | 0.00 | 0.09 | 0.09 | 90 | 1012.4 |
| 20260505203549 | 53 | 316 | 0.0 | 1.7 | 0.00 | 0.09 | 0.09 | 90 | 1012.6 |
| 20260505203051 | 53 | 316 | 0.0 | 1.7 | 0.00 | 0.09 | 0.09 | 90 | 1012.5 |
| 20260505202550 | 54 | 316 | 0.0 | 0.9 | 0.00 | 0.09 | 0.09 | 90 | 1012.5 |
| 20260505202054 | 54 | 316 | 0.0 | 0.9 | 0.00 | 0.09 | 0.09 | 90 | 1012.4 |
| 20260505201554 | 54 | 316 | 0.0 | 3.5 | 0.00 | 0.09 | 0.09 | 90 | 1012.2 |
| 20260505201049 | 54 | 360 | 0.9 | 2.6 | 0.00 | 0.09 | 0.09 | 90 | 1012.1 |
| 20260505200549 | 54 | 39 | 0.0 | 0.0 | 0.00 | 0.09 | 0.09 | 89 | 1012.1 |
| 20260505200048 | 54 | 39 | 0.0 | 0.0 | 0.00 | 0.09 | 0.09 | 89 | 1012.1 |
| 20260505195548 | 54 | 39 | 0.0 | 0.0 | 0.00 | 0.09 | 0.09 | 89 | 1012.1 |
| 20260505195051 | 54 | 39 | 0.0 | 0.0 | 0.00 | 0.09 | 0.09 | 89 | 1012.0 |
| 20260505194548 | 54 | 39 | 0.0 | 0.0 | 0.00 | 0.09 | 0.09 | 89 | 1011.8 |
| 20260505194048 | 55 | 39 | 0.0 | 0.0 | 0.00 | 0.09 | 0.09 | 88 | 1011.8 |
| 20260505193550 | 55 | 39 | 0.0 | 0.0 | 0.00 | 0.09 | 0.09 | 88 | 1011.8 |
| 20260505193050 | 55 | 39 | 0.0 | 0.0 | 0.00 | 0.09 | 0.09 | 88 | 1011.8 |
| 20260505192551 | 55 | 39 | 0.0 | 0.0 | 0.00 | 0.09 | 0.09 | 87 | 1011.7 |
| 20260505192048 | 55 | 39 | 0.0 | 0.0 | 0.00 | 0.09 | 0.09 | 87 | 1011.7 |
| 20260505191555 | 56 | 39 | 0.0 | 0.0 | 0.00 | 0.09 | 0.09 | 87 | 1011.6 |
| 20260505191050 | 56 | 39 | 0.0 | 0.0 | 0.00 | 0.09 | 0.09 | 87 | 1011.8 |
| 20260505190548 | 56 | 39 | 0.0 | 0.0 | 0.00 | 0.09 | 0.09 | 87 | 1011.6 |
| 20260505185546 | 57 | 39 | 0.0 | 0.0 | 0.00 | 0.09 | 0.09 | 86 | 1011.5 |
| 20260505185046 | 57 | 39 | 0.0 | 0.0 | 0.01 | 0.09 | 0.09 | 86 | 1011.5 |
| 20260505184559 | 57 | 39 | 0.0 | 0.0 | 0.01 | 0.09 | 0.09 | 86 | 1011.5 |
| 20260505184046 | 58 | 39 | 0.0 | 0.0 | 0.01 | 0.09 | 0.09 | 86 | 1011.3 |
| 20260505183548 | 58 | 39 | 0.0 | 0.0 | 0.02 | 0.09 | 0.09 | 86 | 1011.3 |
| 20260505183051 | 58 | 39 | 0.0 | 0.0 | 0.08 | 0.09 | 0.09 | 86 | 1011.3 |
| 20260505182546 | 58 | 39 | 0.0 | 0.0 | 0.08 | 0.09 | 0.09 | 85 | 1011.2 |
| 20260505182046 | 58 | 39 | 0.0 | 0.0 | 0.08 | 0.09 | 0.09 | 85 | 1011.0 |
| 20260505181546 | 58 | 39 | 0.0 | 0.0 | 0.08 | 0.09 | 0.09 | 84 | 1011.0 |
| 20260505181048 | 59 | 39 | 0.0 | 0.0 | 0.08 | 0.09 | 0.09 | 84 | 1010.9 |
| 20260505180545 | 59 | 39 | 0.0 | 0.0 | 0.08 | 0.09 | 0.09 | 83 | 1011.1 |
| 20260505180049 | 59 | 39 | 0.0 | 0.0 | 0.08 | 0.10 | 0.09 | 82 | 1011.2 |
| 20260505175545 | 59 | 39 | 0.0 | 1.7 | 0.08 | 0.10 | 0.09 | 82 | 1011.3 |
| 20260505175045 | 60 | 39 | 0.0 | 2.6 | 0.07 | 0.09 | 0.08 | 82 | 1011.4 |
| 20260505174545 | 60 | 39 | 0.9 | 5.2 | 0.07 | 0.09 | 0.08 | 82 | 1011.4 |
| 20260505174045 | 61 | 313 | 0.9 | 8.7 | 0.06 | 0.08 | 0.07 | 82 | 1011.4 |
| 20260505173545 | 61 | 333 | 0.9 | 8.7 | 0.06 | 0.08 | 0.07 | 80 | 1011.4 |
| 20260505173045 | 61 | 165 | 0.9 | 4.3 | 0.00 | 0.02 | 0.01 | 78 | 1011.1 |
| 20260505172543 | 61 | 112 | 0.9 | 3.5 | 0.00 | 0.02 | 0.01 | 78 | 1010.4 |
| 20260505172043 | 61 | 76 | 0.9 | 3.5 | 0.00 | 0.02 | 0.01 | 78 | 1010.5 |
| 20260505171544 | 61 | 76 | 0.9 | 2.6 | 0.00 | 0.02 | 0.01 | 77 | 1010.6 |
| 20260505171043 | 62 | 143 | 0.0 | 1.7 | 0.00 | 0.02 | 0.01 | 77 | 1010.6 |
| 20260505170542 | 62 | 27 | 0.0 | 2.6 | 0.00 | 0.02 | 0.01 | 76 | 1010.6 |
| 20260505170043 | 62 | 27 | 0.9 | 3.5 | 0.00 | 0.04 | 0.01 | 76 | 1010.6 |
| 20260505165542 | 62 | 302 | 0.9 | 5.2 | 0.00 | 0.04 | 0.01 | 75 | 1010.6 |
| 20260505165042 | 63 | 84 | 2.6 | 5.2 | 0.00 | 0.04 | 0.01 | 74 | 1010.6 |
| 20260505164542 | 63 | 77 | 1.7 | 4.3 | 0.00 | 0.04 | 0.01 | 73 | 1010.5 |
| 20260505164042 | 63 | 69 | 0.0 | 1.7 | 0.00 | 0.04 | 0.01 | 73 | 1010.5 |
| 20260505163544 | 63 | 69 | 0.0 | 4.3 | 0.00 | 0.04 | 0.01 | 73 | 1010.6 |
| 20260505163042 | 63 | 69 | 0.9 | 4.3 | 0.00 | 0.04 | 0.01 | 73 | 1010.5 |
| 20260505162541 | 63 | 57 | 0.9 | 3.5 | 0.00 | 0.04 | 0.01 | 74 | 1010.5 |
| 20260505162041 | 63 | 40 | 0.0 | 0.9 | 0.00 | 0.04 | 0.01 | 75 | 1010.7 |
| 20260505161541 | 63 | 40 | 0.0 | 1.7 | 0.00 | 0.04 | 0.01 | 76 | 1010.6 |
| 20260505161041 | 63 | 40 | 0.0 | 2.6 | 0.00 | 0.04 | 0.01 | 76 | 1010.7 |
| 20260505160545 | 62 | 40 | 0.9 | 2.6 | 0.00 | 0.04 | 0.01 | 76 | 1010.7 |
| 20260505153042 | 61 | 325 | 0.0 | 3.5 | 0.00 | 0.06 | 0.01 | 78 | 1010.7 |
| 20260505152539 | 61 | 332 | 1.7 | 5.2 | 0.00 | 0.06 | 0.01 | 77 | 1010.8 |
| 20260505152041 | 61 | 24 | 0.0 | 2.6 | 0.00 | 0.06 | 0.01 | 78 | 1010.8 |
| 20260505151539 | 61 | 25 | 0.0 | 1.7 | 0.00 | 0.06 | 0.01 | 78 | 1010.8 |
| 20260505151039 | 61 | 25 | 0.0 | 1.7 | 0.00 | 0.06 | 0.01 | 78 | 1010.9 |
| 20260505150539 | 61 | 25 | 0.0 | 1.7 | 0.00 | 0.06 | 0.01 | 79 | 1010.8 |
| 20260505140537 | 65 | 225 | 1.7 | 8.7 | 0.00 | 0.06 | 0.01 | 70 | 1010.5 |
| 20260505125026 | 66 | 186 | 0.0 | 2.6 | 0.00 | 0.06 | 0.01 | 69 | 1010.4 |
| 20260505124525 | 66 | 186 | 0.0 | 2.6 | 0.00 | 0.06 | 0.01 | 69 | 1010.4 |
| 20260505124024 | 65 | 186 | 0.0 | 2.6 | 0.00 | 0.06 | 0.01 | 69 | 1010.5 |
| 20260505123524 | 65 | 186 | 0.0 | 2.6 | 0.00 | 0.06 | 0.01 | 71 | 1010.6 |
| 20260505123036 | 65 | 186 | 0.0 | 4.3 | 0.00 | 0.06 | 0.01 | 71 | 1010.6 |
| 20260505122522 | 65 | 186 | 0.9 | 4.3 | 0.00 | 0.06 | 0.01 | 70 | 1010.7 |
| 20260505122020 | 64 | 186 | 0.9 | 2.6 | 0.00 | 0.06 | 0.01 | 73 | 1010.7 |
| 20260505121524 | 64 | 186 | 0.0 | 2.6 | 0.00 | 0.06 | 0.01 | 74 | 1010.7 |
| 20260505121019 | 64 | 186 | 0.0 | 1.7 | 0.00 | 0.06 | 0.01 | 75 | 1010.8 |
| 20260505120518 | 63 | 186 | 0.0 | 2.6 | 0.00 | 0.06 | 0.01 | 73 | 1010.8 |
| 20260505120023 | 63 | 186 | 0.9 | 3.5 | 0.00 | 0.06 | 0.01 | 74 | 1010.8 |
| 20260505115518 | 64 | 186 | 0.9 | 3.5 | 0.00 | 0.06 | 0.01 | 77 | 1010.8 |
| 20260505115016 | 62 | 185 | 0.9 | 4.3 | 0.00 | 0.06 | 0.01 | 77 | 1010.9 |
| 20260505114515 | 61 | 306 | 1.7 | 4.3 | 0.00 | 0.06 | 0.01 | 76 | 1011.0 |
| 20260505114014 | 62 | 194 | 0.0 | 3.5 | 0.00 | 0.06 | 0.01 | 81 | 1011.0 |
| 20260505113512 | 62 | 193 | 0.0 | 2.6 | 0.00 | 0.06 | 0.01 | 81 | 1011.1 |
| 20260505113011 | 61 | 193 | 0.0 | 1.7 | 0.00 | 0.06 | 0.01 | 81 | 1011.2 |
| 20260505112510 | 60 | 193 | 0.0 | 1.7 | 0.00 | 0.06 | 0.01 | 79 | 1011.4 |
| 20260505112010 | 60 | 193 | 0.0 | 1.7 | 0.00 | 0.06 | 0.01 | 82 | 1011.5 |
| 20260505111515 | 59 | 193 | 0.0 | 1.7 | 0.00 | 0.06 | 0.01 | 81 | 1011.6 |
| 20260505111008 | 60 | 193 | 0.0 | 1.7 | 0.00 | 0.06 | 0.01 | 81 | 1011.5 |
| 20260505110507 | 60 | 193 | 0.0 | 1.7 | 0.00 | 0.06 | 0.01 | 81 | 1011.7 |
| 20260505102004 | 60 | 193 | 0.0 | 1.7 | 0.00 | 0.06 | 0.01 | 82 | 1011.8 |
| 20260505101503 | 59 | 193 | 0.0 | 1.7 | 0.00 | 0.06 | 0.01 | 83 | 1011.8 |
| 20260505101003 | 59 | 193 | 0.0 | 1.7 | 0.00 | 0.06 | 0.01 | 83 | 1011.7 |
| 20260505100501 | 59 | 193 | 0.0 | 1.7 | 0.00 | 0.06 | 0.01 | 84 | 1011.8 |
| 20260505100110 | 59 | 193 | 0.0 | 1.7 | 0.00 | 0.06 | 0.01 | 84 | 1011.7 |
| 20260505095559 | 58 | 193 | 0.0 | 2.6 | 0.00 | 0.06 | 0.01 | 85 | 1011.8 |
| 20260505095059 | 58 | 193 | 0.0 | 2.6 | 0.00 | 0.06 | 0.01 | 85 | 1011.8 |
| 20260505094607 | 58 | 193 | 0.0 | 3.5 | 0.00 | 0.06 | 0.01 | 85 | 1011.7 |
| 20260505094056 | 58 | 193 | 0.0 | 1.7 | 0.00 | 0.06 | 0.01 | 86 | 1011.7 |
| 20260505093600 | 58 | 193 | 0.0 | 1.7 | 0.00 | 0.06 | 0.01 | 86 | 1011.7 |
| 20260505093056 | 57 | 193 | 0.0 | 1.7 | 0.00 | 0.06 | 0.01 | 86 | 1011.8 |
| 20260505092559 | 57 | 193 | 0.0 | 1.7 | 0.00 | 0.06 | 0.01 | 86 | 1011.8 |
| 20260505092053 | 57 | 284 | 0.0 | 0.0 | 0.00 | 0.06 | 0.01 | 87 | 1011.7 |
| 20260505091553 | 57 | 284 | 0.0 | 0.0 | 0.00 | 0.06 | 0.01 | 87 | 1011.7 |
| 20260505091051 | 57 | 284 | 0.0 | 0.0 | 0.00 | 0.06 | 0.01 | 88 | 1011.7 |
| 20260505090551 | 57 | 284 | 0.0 | 1.7 | 0.00 | 0.06 | 0.01 | 88 | 1011.8 |
| 20260505090105 | 57 | 284 | 0.0 | 1.7 | 0.00 | 0.06 | 0.01 | 89 | 1011.8 |
| 20260505085550 | 57 | 303 | 0.0 | 0.0 | 0.00 | 0.06 | 0.01 | 89 | 1011.7 |
| 20260505085053 | 57 | 303 | 0.0 | 0.0 | 0.00 | 0.06 | 0.01 | 89 | 1011.6 |
| 20260505084549 | 56 | 303 | 0.0 | 0.0 | 0.00 | 0.06 | 0.01 | 90 | 1011.6 |
| 20260505084048 | 56 | 303 | 0.0 | 0.0 | 0.01 | 0.06 | 0.01 | 90 | 1011.8 |
| 20260505083548 | 56 | 306 | 0.0 | 0.0 | 0.01 | 0.06 | 0.01 | 90 | 1011.8 |
| 20260505083048 | 56 | 306 | 0.0 | 0.0 | 0.01 | 0.06 | 0.01 | 90 | 1011.8 |
| 20260505082548 | 56 | 307 | 0.0 | 0.0 | 0.01 | 0.06 | 0.01 | 90 | 1011.9 |
| 20260505082046 | 56 | 307 | 0.0 | 0.0 | 0.01 | 0.06 | 0.01 | 90 | 1012.0 |
| 20260505081549 | 56 | 307 | 0.0 | 0.0 | 0.01 | 0.06 | 0.01 | 90 | 1012.1 |
| 20260505081046 | 56 | 307 | 0.0 | 0.0 | 0.01 | 0.06 | 0.01 | 90 | 1012.2 |
| 20260505080544 | 56 | 307 | 0.0 | 0.0 | 0.01 | 0.06 | 0.01 | 91 | 1012.3 |
| 20260505080051 | 56 | 307 | 0.0 | 0.0 | 0.01 | 0.06 | 0.01 | 91 | 1012.3 |
| 20260505075541 | 56 | 307 | 0.0 | 0.0 | 0.01 | 0.06 | 0.01 | 91 | 1012.4 |
| 20260505075040 | 55 | 307 | 0.0 | 0.0 | 0.01 | 0.06 | 0.01 | 91 | 1012.4 |
| 20260505074540 | 55 | 307 | 0.0 | 0.0 | 0.01 | 0.06 | 0.01 | 91 | 1012.4 |
| 20260505074042 | 55 | 307 | 0.0 | 0.0 | 0.00 | 0.05 | 0.00 | 91 | 1012.5 |
| 20260505073541 | 55 | 307 | 0.0 | 0.0 | 0.00 | 0.05 | 0.00 | 91 | 1012.6 |
| 20260505073051 | 55 | 307 | 0.0 | 0.0 | 0.00 | 0.05 | 0.00 | 91 | 1012.6 |
| 20260505072540 | 55 | 307 | 0.0 | 0.0 | 0.00 | 0.05 | 0.00 | 92 | 1012.6 |
| 20260505072037 | 55 | 307 | 0.0 | 0.0 | 0.00 | 0.05 | 0.00 | 92 | 1012.6 |
| 20260505071537 | 55 | 307 | 0.0 | 0.0 | 0.00 | 0.05 | 0.00 | 92 | 1012.6 |
| 20260505071037 | 55 | 307 | 0.0 | 0.0 | 0.00 | 0.05 | 0.00 | 92 | 1012.6 |
| 20260505070537 | 54 | 307 | 0.0 | 0.0 | 0.00 | 0.05 | 0.00 | 92 | 1012.6 |
| 20260505070040 | 54 | 307 | 0.0 | 0.0 | 0.00 | 0.05 | 0.00 | 92 | 1012.7 |
| 20260505065535 | 54 | 307 | 0.0 | 0.0 | 0.00 | 0.05 | 0.00 | 92 | 1012.6 |
| 20260505065036 | 54 | 307 | 0.0 | 0.0 | 0.00 | 0.05 | 0.00 | 92 | 1012.6 |
| 20260505064535 | 54 | 307 | 0.0 | 0.0 | 0.00 | 0.05 | 0.00 | 92 | 1012.6 |
| 20260505064035 | 54 | 307 | 0.0 | 0.0 | 0.00 | 0.05 | 0.00 | 92 | 1012.8 |
| 20260505063535 | 54 | 307 | 0.0 | 0.0 | 0.00 | 0.05 | 0.00 | 92 | 1012.8 |
| 20260505063036 | 54 | 307 | 0.0 | 0.0 | 0.00 | 0.05 | 0.00 | 92 | 1012.8 |
| 20260505062535 | 54 | 307 | 0.0 | 0.0 | 0.00 | 0.05 | 0.00 | 92 | 1012.8 |
| 20260505062034 | 53 | 306 | 0.0 | 0.0 | 0.00 | 0.05 | 0.00 | 92 | 1012.9 |
| 20260505061535 | 53 | 306 | 0.0 | 0.0 | 0.00 | 0.05 | 0.00 | 92 | 1013.0 |
| 20260505061033 | 53 | 306 | 0.0 | 0.0 | 0.00 | 0.05 | 0.00 | 92 | 1013.1 |
| 20260505060532 | 53 | 306 | 0.0 | 0.0 | 0.00 | 0.05 | 0.00 | 92 | 1013.0 |
| 20260505060035 | 53 | 306 | 0.0 | 0.0 | 0.00 | 0.05 | 0.00 | 92 | 1013.0 |
| 20260505055532 | 53 | 306 | 0.0 | 0.0 | 0.00 | 0.05 | 0.00 | 92 | 1013.0 |
| 20260505055032 | 53 | 306 | 0.0 | 0.0 | 0.00 | 0.05 | 0.00 | 92 | 1013.0 |
| 20260505054533 | 53 | 306 | 0.0 | 0.0 | 0.00 | 0.05 | 0.00 | 92 | 1013.0 |
| 20260505054031 | 53 | 306 | 0.0 | 0.0 | 0.00 | 0.05 | 0.00 | 92 | 1013.0 |
| 20260505053531 | 53 | 306 | 0.0 | 0.0 | 0.00 | 0.05 | 0.00 | 92 | 1012.9 |
| 20260505053031 | 53 | 306 | 0.0 | 0.0 | 0.00 | 0.05 | 0.00 | 92 | 1012.8 |
| 20260505052532 | 53 | 306 | 0.0 | 0.0 | 0.00 | 0.05 | 0.00 | 92 | 1012.9 |
| 20260505052029 | 53 | 306 | 0.0 | 0.0 | 0.00 | 0.05 | 0.00 | 92 | 1012.9 |
| 20260505051528 | 53 | 306 | 0.0 | 0.0 | 0.00 | 0.05 | 0.00 | 92 | 1012.9 |
| 20260505051028 | 53 | 306 | 0.0 | 0.0 | 0.00 | 0.05 | 0.00 | 92 | 1012.9 |
| 20260505050528 | 53 | 309 | 0.0 | 0.0 | 0.00 | 0.05 | 0.00 | 92 | 1012.8 |
| 20260505050130 | 53 | 309 | 0.0 | 0.0 | 0.00 | 0.05 | 0.00 | 92 | 1012.8 |
| 20260505041540 | 53 | 312 | 0.0 | 1.7 | 0.00 | 0.05 | 0.00 | 92 | 1012.7 |
| 20260505041024 | 53 | 312 | 0.0 | 2.6 | 0.00 | 0.05 | 0.00 | 92 | 1012.6 |
| 20260505040525 | 53 | 312 | 0.0 | 2.6 | 0.00 | 0.05 | 0.00 | 92 | 1012.6 |
| 20260505040024 | 53 | 313 | 0.0 | 0.9 | 0.00 | 0.05 | 0.00 | 92 | 1012.6 |
| 20260505035522 | 53 | 313 | 0.0 | 1.7 | 0.00 | 0.05 | 0.00 | 92 | 1012.6 |
| 20260505035023 | 53 | 313 | 0.0 | 1.7 | 0.00 | 0.05 | 0.00 | 92 | 1012.7 |
| 20260505034522 | 53 | 313 | 0.0 | 1.7 | 0.00 | 0.05 | 0.00 | 92 | 1012.7 |
| 20260505034026 | 53 | 313 | 0.0 | 1.7 | 0.00 | 0.05 | 0.00 | 92 | 1012.7 |
| 20260505033521 | 53 | 313 | 0.0 | 1.7 | 0.00 | 0.05 | 0.00 | 92 | 1012.8 |
| 20260505033021 | 53 | 313 | 0.0 | 1.7 | 0.00 | 0.05 | 0.00 | 92 | 1013.0 |
| 20260505032523 | 53 | 313 | 0.0 | 2.6 | 0.00 | 0.05 | 0.00 | 92 | 1013.0 |
| 20260505032020 | 53 | 313 | 0.9 | 2.6 | 0.00 | 0.05 | 0.00 | 92 | 1013.0 |
| 20260505031520 | 53 | 322 | 0.0 | 3.5 | 0.00 | 0.05 | 0.00 | 92 | 1013.0 |
| 20260505031020 | 53 | 322 | 0.0 | 3.5 | 0.00 | 0.05 | 0.00 | 92 | 1012.9 |
| 20260505030520 | 53 | 321 | 0.9 | 3.5 | 0.00 | 0.05 | 0.00 | 92 | 1012.9 |
| 20260505030121 | 53 | 314 | 0.0 | 3.5 | 0.00 | 0.05 | 0.00 | 92 | 1012.9 |